Time,TemperatureF,DewpointF,PressureIn,WindDirection,WindDirectionDegrees,WindSpeedMPH,WindSpeedGustMPH,Humidity,HourlyPrecipIn,Conditions,Clouds,dailyrainin,SoftwareType,DateUTC
2013-03-06 00:01:00,46.0,41.0,29.57,South,181,0.0,4.0,82,0.00,,,0.00,,2013-03-06 00:01:00,
2013-03-06 00:11:00,46.0,41.0,29.57,South,181,0.0,4.0,82,0.00,,,0.00,,2013-03-06 00:11:00,
2013-03-06 00:21:00,46.0,41.0,29.57,South,181,0.0,2.0,82,0.00,,,0.00,,2013-03-06 00:21:00,
2013-03-06 00:32:00,46.0,41.0,29.57,South,178,0.0,2.0,83,0.00,,,0.00,,2013-03-06 00:32:00,
2013-03-06 00:42:00,46.0,41.0,29.57,South,178,0.0,2.0,83,0.00,,,0.00,,2013-03-06 00:42:00,
2013-03-06 00:52:00,45.0,40.0,29.56,North,0,0.0,0.0,83,0.00,,,0.00,,2013-03-06 00:52:00,
2013-03-06 01:01:00,45.0,40.0,29.56,North,0,0.0,0.0,83,0.00,,,0.00,,2013-03-06 01:01:00,
2013-03-06 01:11:00,45.0,40.0,29.56,North,0,0.0,0.0,83,0.00,,,0.00,,2013-03-06 01:11:00,
2013-03-06 01:21:00,45.0,40.0,29.56,North,0,0.0,0.0,84,0.00,,,0.00,,2013-03-06 01:21:00,
2013-03-06 01:31:00,45.0,40.0,29.56,SSE,159,0.0,6.0,84,0.00,,,0.00,,2013-03-06 01:31:00,
2013-03-06 01:41:00,45.0,40.0,29.56,SSE,159,0.0,6.0,84,0.00,,,0.00,,2013-03-06 01:41:00,
2013-03-06 01:51:00,45.0,40.0,29.56,SSE,159,0.0,6.0,84,0.00,,,0.00,,2013-03-06 01:51:00,
2013-03-06 02:01:00,44.0,40.0,29.55,SE,146,0.0,2.0,85,0.00,,,0.00,,2013-03-06 02:01:00,
2013-03-06 02:11:00,44.0,40.0,29.55,SE,146,0.0,2.0,85,0.00,,,0.00,,2013-03-06 02:11:00,
2013-03-06 02:21:00,44.0,40.0,29.55,SE,144,0.0,4.0,85,0.00,,,0.00,,2013-03-06 02:21:00,
2013-03-06 02:31:00,44.0,40.0,29.55,SE,140,0.0,4.0,85,0.00,,,0.00,,2013-03-06 02:31:00,
2013-03-06 02:41:00,44.0,40.0,29.55,SE,140,0.0,4.0,85,0.00,,,0.00,,2013-03-06 02:41:00,
2013-03-06 02:52:00,44.0,40.0,29.54,SE,139,0.0,2.0,85,0.00,,,0.00,,2013-03-06 02:52:00,
2013-03-06 03:01:00,44.0,40.0,29.54,SE,139,0.0,4.0,86,0.00,,,0.00,,2013-03-06 03:01:00,
2013-03-06 03:11:00,44.0,40.0,29.54,SE,139,0.0,4.0,86,0.00,,,0.00,,2013-03-06 03:11:00,
2013-03-06 03:21:00,44.0,40.0,29.54,SE,139,0.0,2.0,86,0.00,,,0.00,,2013-03-06 03:21:00,
2013-03-06 03:31:00,45.0,41.0,29.54,SE,139,0.0,2.0,86,0.00,,,0.00,,2013-03-06 03:31:00,
2013-03-06 03:41:00,45.0,41.0,29.54,SE,139,0.0,2.0,86,0.00,,,0.00,,2013-03-06 03:41:00,
2013-03-06 03:52:00,45.0,41.0,29.54,North,0,0.0,0.0,86,0.00,,,0.00,,2013-03-06 03:52:00,
2013-03-06 04:01:00,45.0,41.0,29.54,SE,139,0.0,2.0,86,0.00,,,0.00,,2013-03-06 04:01:00,
2013-03-06 04:11:00,45.0,41.0,29.54,SE,139,0.0,2.0,86,0.00,,,0.00,,2013-03-06 04:11:00,
2013-03-06 04:21:00,45.0,41.0,29.54,SE,139,0.0,2.0,86,0.00,,,0.00,,2013-03-06 04:21:00,
2013-03-06 04:31:00,45.0,41.0,29.54,SE,139,0.0,2.0,86,0.00,,,0.00,,2013-03-06 04:31:00,
2013-03-06 04:41:00,45.0,41.0,29.54,SE,139,0.0,2.0,86,0.00,,,0.00,,2013-03-06 04:41:00,
2013-03-06 04:52:00,45.0,41.0,29.54,SE,139,0.0,4.0,85,0.00,,,0.00,,2013-03-06 04:52:00,
2013-03-06 05:01:00,45.0,41.0,29.54,SE,139,0.0,4.0,86,0.00,,,0.00,,2013-03-06 05:01:00,
2013-03-06 05:11:00,45.0,41.0,29.54,SE,139,0.0,4.0,86,0.00,,,0.00,,2013-03-06 05:11:00,
2013-03-06 05:22:00,45.0,41.0,29.53,SE,139,0.0,4.0,86,0.00,,,0.00,,2013-03-06 05:22:00,
2013-03-06 05:32:00,45.0,41.0,29.53,SE,139,0.0,4.0,86,0.00,,,0.00,,2013-03-06 05:32:00,
2013-03-06 05:42:00,45.0,41.0,29.53,SE,139,0.0,4.0,86,0.00,,,0.00,,2013-03-06 05:42:00,
2013-03-06 05:52:00,45.0,41.0,29.53,NE,39,0.0,2.0,86,0.00,,,0.00,,2013-03-06 05:52:00,
2013-03-06 06:01:00,45.0,41.0,29.53,NE,39,0.0,2.0,86,0.00,,,0.00,,2013-03-06 06:01:00,
2013-03-06 06:11:00,45.0,41.0,29.53,NE,39,0.0,2.0,86,0.00,,,0.00,,2013-03-06 06:11:00,
2013-03-06 06:22:00,45.0,41.0,29.53,NE,39,0.0,2.0,86,0.00,,,0.00,,2013-03-06 06:22:00,
2013-03-06 06:31:00,45.0,41.0,29.53,NE,39,0.0,2.0,86,0.00,,,0.00,,2013-03-06 06:31:00,
2013-03-06 06:41:00,45.0,41.0,29.53,NE,39,0.0,2.0,86,0.00,,,0.00,,2013-03-06 06:41:00,
2013-03-06 06:52:00,45.0,41.0,29.53,NE,39,0.0,2.0,86,0.00,,,0.00,,2013-03-06 06:52:00,
2013-03-06 07:01:00,45.0,41.0,29.54,NE,40,0.0,2.0,86,0.00,,,0.00,,2013-03-06 07:01:00,
2013-03-06 07:11:00,45.0,41.0,29.54,NE,40,0.0,2.0,86,0.00,,,0.00,,2013-03-06 07:11:00,
2013-03-06 07:22:00,45.0,41.0,29.54,NE,40,0.0,2.0,86,0.00,,,0.00,,2013-03-06 07:22:00,
2013-03-06 07:31:00,45.0,41.0,29.54,NE,39,0.0,2.0,87,0.00,,,0.00,,2013-03-06 07:31:00,
2013-03-06 07:41:00,45.0,41.0,29.54,NE,39,0.0,2.0,87,0.00,,,0.00,,2013-03-06 07:41:00,
2013-03-06 07:52:00,45.0,42.0,29.54,NE,39,0.0,2.0,88,0.00,,,0.00,,2013-03-06 07:52:00,
2013-03-06 08:01:00,45.0,42.0,29.55,NE,40,0.0,2.0,88,0.00,,,0.00,,2013-03-06 08:01:00,
2013-03-06 08:11:00,45.0,42.0,29.55,NE,40,0.0,2.0,88,0.00,,,0.00,,2013-03-06 08:11:00,
2013-03-06 08:21:00,45.0,42.0,29.55,NE,39,0.0,2.0,89,0.00,,,0.00,,2013-03-06 08:21:00,
2013-03-06 08:31:00,45.0,42.0,29.55,NE,39,0.0,4.0,89,0.00,,,0.00,,2013-03-06 08:31:00,
2013-03-06 08:42:00,45.0,42.0,29.55,NE,39,0.0,4.0,89,0.00,,,0.00,,2013-03-06 08:42:00,
2013-03-06 08:52:00,45.0,42.0,29.55,NE,39,0.0,2.0,88,0.00,,,0.00,,2013-03-06 08:52:00,
2013-03-06 09:01:00,46.0,43.0,29.55,NE,40,0.0,4.0,88,0.00,,,0.00,,2013-03-06 09:01:00,
2013-03-06 09:12:00,46.0,43.0,29.55,NE,40,0.0,4.0,88,0.00,,,0.00,,2013-03-06 09:12:00,
2013-03-06 09:21:00,46.0,42.0,29.55,NE,39,0.0,2.0,87,0.00,,,0.00,,2013-03-06 09:21:00,
2013-03-06 09:31:00,46.0,42.0,29.55,NE,39,0.0,2.0,87,0.00,,,0.00,,2013-03-06 09:31:00,
2013-03-06 09:41:00,46.0,42.0,29.55,NE,39,0.0,2.0,87,0.00,,,0.00,,2013-03-06 09:41:00,
2013-03-06 09:52:00,48.0,43.0,29.54,ENE,76,0.0,8.0,82,0.00,,,0.00,,2013-03-06 09:52:00,
2013-03-06 10:01:00,49.0,43.0,29.54,East,96,3.0,6.0,81,0.00,,,0.00,,2013-03-06 10:01:00,
2013-03-06 10:11:00,49.0,43.0,29.54,East,96,3.0,6.0,81,0.00,,,0.00,,2013-03-06 10:11:00,
2013-03-06 10:21:00,50.0,43.0,29.54,ENE,70,0.0,8.0,78,0.00,,,0.00,,2013-03-06 10:21:00,
2013-03-06 10:31:00,51.0,44.0,29.54,East,80,3.0,12.0,78,0.00,,,0.00,,2013-03-06 10:31:00,
2013-03-06 10:41:00,51.0,44.0,29.54,East,80,3.0,12.0,78,0.00,,,0.00,,2013-03-06 10:41:00,
2013-03-06 10:51:00,51.0,44.0,29.54,East,82,3.0,14.0,76,0.00,,,0.00,,2013-03-06 10:51:00,
2013-03-06 11:01:00,52.0,44.0,29.54,East,98,3.0,6.0,75,0.00,,,0.00,,2013-03-06 11:01:00,
2013-03-06 11:11:00,52.0,44.0,29.54,East,98,3.0,6.0,75,0.00,,,0.00,,2013-03-06 11:11:00,
2013-03-06 11:22:00,52.0,44.0,29.54,ESE,107,3.0,6.0,74,0.00,,,0.00,,2013-03-06 11:22:00,
2013-03-06 11:31:00,52.0,44.0,29.54,ESE,103,3.0,8.0,73,0.00,,,0.00,,2013-03-06 11:31:00,
2013-03-06 11:42:00,52.0,44.0,29.54,ESE,103,3.0,8.0,73,0.00,,,0.00,,2013-03-06 11:42:00,
2013-03-06 11:52:00,53.0,45.0,29.54,ESE,102,0.0,4.0,73,0.00,,,0.00,,2013-03-06 11:52:00,
2013-03-06 12:01:00,54.0,46.0,29.54,SE,127,0.0,6.0,73,0.00,,,0.00,,2013-03-06 12:01:00,
2013-03-06 12:11:00,54.0,46.0,29.54,SE,127,0.0,6.0,73,0.00,,,0.00,,2013-03-06 12:11:00,
2013-03-06 12:21:00,54.0,46.0,29.54,SE,127,0.0,6.0,73,0.00,,,0.00,,2013-03-06 12:21:00,
2013-03-06 12:32:00,54.0,45.0,29.53,NE,54,0.0,6.0,71,0.00,,,0.00,,2013-03-06 12:32:00,
2013-03-06 12:42:00,54.0,45.0,29.53,NE,54,0.0,6.0,71,0.00,,,0.00,,2013-03-06 12:42:00,
2013-03-06 12:52:00,55.0,45.0,29.53,East,87,0.0,8.0,70,0.00,,,0.00,,2013-03-06 12:52:00,
2013-03-06 13:01:00,55.0,46.0,29.52,ESE,102,0.0,6.0,71,0.00,,,0.00,,2013-03-06 13:01:00,
2013-03-06 13:11:00,55.0,46.0,29.52,ESE,102,0.0,6.0,71,0.00,,,0.00,,2013-03-06 13:11:00,
2013-03-06 13:21:00,55.0,45.0,29.52,ESE,107,3.0,4.0,68,0.00,,,0.00,,2013-03-06 13:21:00,
2013-03-06 13:31:00,55.0,45.0,29.52,ESE,107,3.0,4.0,68,0.00,,,0.00,,2013-03-06 13:31:00,
2013-03-06 13:42:00,55.0,45.0,29.52,ESE,107,3.0,4.0,68,0.00,,,0.00,,2013-03-06 13:42:00,
2013-03-06 13:52:00,55.0,45.0,29.52,ESE,106,3.0,8.0,69,0.00,,,0.00,,2013-03-06 13:52:00,
2013-03-06 14:01:00,55.0,45.0,29.52,SE,133,0.0,4.0,70,0.00,,,0.00,,2013-03-06 14:01:00,
2013-03-06 14:11:00,55.0,45.0,29.52,SE,133,0.0,4.0,70,0.00,,,0.00,,2013-03-06 14:11:00,
2013-03-06 14:21:00,55.0,45.0,29.52,East,87,0.0,4.0,70,0.00,,,0.00,,2013-03-06 14:21:00,
2013-03-06 14:32:00,55.0,45.0,29.51,East,84,0.0,4.0,69,0.00,,,0.00,,2013-03-06 14:32:00,
2013-03-06 14:41:00,55.0,45.0,29.51,East,84,0.0,4.0,69,0.00,,,0.00,,2013-03-06 14:41:00,
2013-03-06 14:52:00,55.0,45.0,29.51,ENE,69,0.0,2.0,70,0.00,,,0.00,,2013-03-06 14:52:00,
2013-03-06 15:01:00,55.0,45.0,29.51,ENE,69,0.0,6.0,69,0.00,,,0.00,,2013-03-06 15:01:00,
2013-03-06 15:11:00,55.0,45.0,29.51,ENE,69,0.0,6.0,69,0.00,,,0.00,,2013-03-06 15:11:00,
2013-03-06 15:21:00,55.0,45.0,29.51,East,83,0.0,6.0,69,0.00,,,0.00,,2013-03-06 15:21:00,
2013-03-06 15:32:00,55.0,45.0,29.51,East,81,0.0,4.0,70,0.00,,,0.00,,2013-03-06 15:32:00,
2013-03-06 15:41:00,55.0,45.0,29.51,East,81,0.0,4.0,70,0.00,,,0.00,,2013-03-06 15:41:00,
2013-03-06 15:51:00,55.0,45.0,29.50,East,80,0.0,4.0,69,0.00,,,0.00,,2013-03-06 15:51:00,
2013-03-06 16:01:00,55.0,45.0,29.50,East,80,0.0,4.0,69,0.00,,,0.00,,2013-03-06 16:01:00,
2013-03-06 16:11:00,55.0,45.0,29.50,East,80,0.0,4.0,69,0.00,,,0.00,,2013-03-06 16:11:00,
2013-03-06 16:21:00,55.0,46.0,29.50,NE,54,0.0,4.0,71,0.00,,,0.00,,2013-03-06 16:21:00,
2013-03-06 16:32:00,55.0,46.0,29.50,East,85,0.0,4.0,71,0.00,,,0.00,,2013-03-06 16:32:00,
2013-03-06 16:41:00,55.0,46.0,29.50,East,85,0.0,4.0,71,0.00,,,0.00,,2013-03-06 16:41:00,
2013-03-06 16:51:00,54.0,45.0,29.50,ENE,58,0.0,8.0,71,0.00,,,0.00,,2013-03-06 16:51:00,
2013-03-06 17:01:00,54.0,46.0,29.50,ENE,67,0.0,4.0,73,0.00,,,0.00,,2013-03-06 17:01:00,
2013-03-06 17:11:00,54.0,46.0,29.50,ENE,67,0.0,4.0,73,0.00,,,0.00,,2013-03-06 17:11:00,
2013-03-06 17:21:00,54.0,45.0,29.50,ENE,70,0.0,6.0,72,0.00,,,0.00,,2013-03-06 17:21:00,
2013-03-06 17:31:00,54.0,45.0,29.50,East,87,0.0,6.0,72,0.00,,,0.00,,2013-03-06 17:31:00,
2013-03-06 17:41:00,54.0,45.0,29.50,East,87,0.0,6.0,72,0.00,,,0.00,,2013-03-06 17:41:00,
2013-03-06 17:52:00,54.0,45.0,29.50,ESE,119,3.0,10.0,71,0.00,,,0.00,,2013-03-06 17:52:00,
2013-03-06 18:01:00,54.0,45.0,29.50,East,85,0.0,4.0,72,0.00,,,0.00,,2013-03-06 18:01:00,
2013-03-06 18:28:00,54.0,45.0,29.50,East,85,0.0,4.0,72,0.00,,,0.00,,2013-03-06 18:28:00,
2013-03-06 18:41:00,53.0,44.0,29.50,East,97,0.0,6.0,72,0.00,,,0.00,,2013-03-06 18:41:00,
2013-03-06 18:52:00,53.0,45.0,29.51,ENE,64,0.0,10.0,73,0.00,,,0.00,,2013-03-06 18:52:00,
2013-03-06 19:02:00,53.0,45.0,29.51,East,85,3.0,8.0,73,0.00,,,0.00,,2013-03-06 19:02:00,
2013-03-06 19:11:00,53.0,45.0,29.51,East,85,3.0,8.0,73,0.00,,,0.00,,2013-03-06 19:11:00,
2013-03-06 19:21:00,52.0,43.0,29.52,East,87,0.0,6.0,72,0.00,,,0.00,,2013-03-06 19:21:00,
2013-03-06 19:31:00,52.0,44.0,29.52,ESE,117,0.0,6.0,73,0.00,,,0.00,,2013-03-06 19:31:00,
2013-03-06 19:42:00,52.0,44.0,29.52,ESE,117,0.0,6.0,73,0.00,,,0.00,,2013-03-06 19:42:00,
2013-03-06 19:52:00,52.0,44.0,29.52,ESE,117,0.0,6.0,73,0.00,,,0.00,,2013-03-06 19:52:00,
2013-03-06 20:01:00,51.0,44.0,29.52,East,97,3.0,6.0,76,0.00,,,0.00,,2013-03-06 20:01:00,
2013-03-06 20:11:00,51.0,44.0,29.52,East,97,3.0,6.0,76,0.00,,,0.00,,2013-03-06 20:11:00,
2013-03-06 20:22:00,51.0,44.0,29.52,SSE,150,0.0,6.0,77,0.00,,,0.00,,2013-03-06 20:22:00,
2013-03-06 20:32:00,51.0,44.0,29.52,SSE,150,0.0,6.0,77,0.00,,,0.00,,2013-03-06 20:32:00,
2013-03-06 20:41:00,51.0,44.0,29.52,SSE,150,0.0,6.0,77,0.00,,,0.00,,2013-03-06 20:41:00,
2013-03-06 20:52:00,50.0,43.0,29.52,ESE,111,3.0,8.0,76,0.00,,,0.00,,2013-03-06 20:52:00,
2013-03-06 21:01:00,49.0,42.0,29.52,East,101,0.0,6.0,77,0.00,,,0.00,,2013-03-06 21:01:00,
2013-03-06 21:11:00,49.0,42.0,29.52,East,101,0.0,6.0,77,0.00,,,0.00,,2013-03-06 21:11:00,
2013-03-06 21:22:00,49.0,42.0,29.52,East,101,0.0,6.0,77,0.00,,,0.00,,2013-03-06 21:22:00,
2013-03-06 21:31:00,49.0,43.0,29.51,NE,55,0.0,6.0,79,0.00,,,0.00,,2013-03-06 21:31:00,
2013-03-06 21:42:00,49.0,43.0,29.51,NE,55,0.0,6.0,79,0.00,,,0.00,,2013-03-06 21:42:00,
2013-03-06 21:52:00,49.0,43.0,29.51,ENE,65,0.0,4.0,79,0.00,,,0.00,,2013-03-06 21:52:00,
2013-03-06 22:01:00,49.0,43.0,29.51,ENE,65,0.0,4.0,79,0.00,,,0.00,,2013-03-06 22:01:00,
2013-03-06 22:11:00,49.0,43.0,29.51,ENE,65,0.0,4.0,79,0.00,,,0.00,,2013-03-06 22:11:00,
2013-03-06 22:21:00,48.0,43.0,29.51,NE,54,0.0,4.0,82,0.00,,,0.00,,2013-03-06 22:21:00,
2013-03-06 22:32:00,48.0,43.0,29.51,NE,54,0.0,4.0,84,0.00,,,0.00,,2013-03-06 22:32:00,
2013-03-06 22:42:00,48.0,43.0,29.51,NE,54,0.0,4.0,84,0.00,,,0.00,,2013-03-06 22:42:00,
2013-03-06 22:52:00,47.0,43.0,29.51,NE,54,0.0,2.0,87,0.01,,,0.01,,2013-03-06 22:52:00,
2013-03-06 23:01:00,47.0,43.0,29.51,NE,54,0.0,2.0,87,0.01,,,0.01,,2013-03-06 23:01:00,
2013-03-06 23:11:00,47.0,43.0,29.51,NE,54,0.0,2.0,87,0.01,,,0.01,,2013-03-06 23:11:00,
2013-03-06 23:21:00,47.0,44.0,29.51,NE,54,0.0,2.0,89,0.01,,,0.01,,2013-03-06 23:21:00,
2013-03-06 23:31:00,46.0,43.0,29.51,East,89,0.0,2.0,90,0.01,,,0.01,,2013-03-06 23:31:00,
2013-03-06 23:41:00,46.0,43.0,29.51,East,89,0.0,2.0,90,0.01,,,0.01,,2013-03-06 23:41:00,
2013-03-06 23:52:00,46.0,43.0,29.51,East,89,0.0,4.0,90,0.00,,,0.01,,2013-03-06 23:52:00,